Total_Precipitation_Accumulation
0.00 0.00 0.01 0.01 0.01 0.02 0.03 0.07 0.14 0.22 0.17 0.25 0.33 0.44 0.59 0.76 0.99 1.02 1.10 1.21 1.43 1.73 2.14 2.82 3.51 4.08 4.74 5.50 6.07 5.90 5.25 4.73 4.11 3.55 2.98 2.83 2.56 2.29 2.03 1.81 1.60 1.56 1.48 1.27
0.01 0.03 0.03 0.02 0.02 0.03 0.04 0.08 0.13 0.18 0.15 0.15 0.26 0.53 0.69 0.78 0.95 0.91 0.91 0.94 1.13 1.48 2.09 2.88 3.50 3.70 3.71 3.98 4.23 3.73 3.50 3.46 3.04 2.70 2.58 2.43 2.22 1.99 1.76 1.62 1.53 1.28 1.24 1.17
0.02 0.04 0.03 0.03 0.03 0.04 0.07 0.09 0.10 0.16 0.17 0.22 0.36 0.70 0.92 0.85 0.84 0.73 0.71 0.91 1.38 1.77 2.21 2.73 2.90 2.91 2.80 2.78 2.77 2.53 2.46 2.73 2.63 2.55 2.46 2.36 2.28 2.18 1.91 1.58 1.48 1.23 1.08 1.06
0.01 0.03 0.03 0.04 0.04 0.05 0.07 0.06 0.04 0.05 0.12 0.35 0.51 0.91 1.09 1.00 0.94 0.67 0.71 1.08 1.59 1.91 2.17 2.17 1.78 1.66 1.81 1.90 1.99 2.23 2.30 2.40 2.30 2.33 2.11 1.87 1.70 1.56 1.45 1.39 1.37 1.35 1.19 1.08
0.03 0.03 0.03 0.04 0.04 0.04 0.04 0.04 0.03 0.06 0.15 0.39 0.66 1.08 1.26 1.06 0.87 0.62 0.59 0.67 1.04 1.26 1.23 1.03 0.89 0.97 1.21 1.45 1.69 2.06 2.14 2.15 2.04 1.98 1.98 1.98 1.85 1.76 1.62 1.56 1.60 1.59 1.56 1.38
0.04 0.04 0.04 0.03 0.03 0.03 0.03 0.04 0.10 0.20 0.38 0.82 0.86 0.95 1.19 1.01 0.80 0.61 0.42 0.45 0.70 0.74 0.60 0.62 0.70 0.89 1.13 1.30 1.40 1.60 1.76 1.94 1.98 2.00 2.06 2.00 1.93 1.93 1.74 1.57 1.47 1.46 1.49 1.44
0.09 0.08 0.06 0.04 0.03 0.04 0.03 0.05 0.26 0.60 0.89 1.01 0.73 0.87 1.17 0.78 0.52 0.41 0.29 0.26 0.30 0.34 0.43 0.60 0.66 0.86 0.98 1.09 1.11 1.20 1.32 1.52 1.65 1.73 1.86 1.91 1.91 1.92 1.71 1.58 1.44 1.39 1.30 1.26
0.14 0.14 0.08 0.04 0.05 0.05 0.04 0.04 0.10 0.21 0.33 0.53 0.69 1.07 1.15 0.75 0.41 0.25 0.20 0.19 0.19 0.23 0.30 0.35 0.39 0.48 0.62 0.79 0.98 1.12 1.17 1.18 1.21 1.27 1.47 1.65 1.67 1.69 1.62 1.64 1.43 1.32 1.25 1.26
0.05 0.04 0.04 0.04 0.05 0.03 0.03 0.03 0.04 0.05 0.08 0.31 0.73 1.01 0.92 0.58 0.40 0.29 0.24 0.25 0.22 0.22 0.30 0.26 0.25 0.32 0.41 0.47 0.62 0.83 0.92 0.93 0.94 1.01 1.16 1.27 1.32 1.43 1.54 1.51 1.35 1.20 1.23 1.25
0.02 0.02 0.03 0.03 0.03 0.04 0.04 0.03 0.03 0.05 0.10 0.23 0.57 1.04 1.18 0.81 0.56 0.40 0.33 0.26 0.23 0.24 0.25 0.27 0.27 0.28 0.30 0.32 0.45 0.62 0.77 0.80 0.83 0.88 0.94 0.94 1.07 1.18 1.32 1.34 1.30 1.18 1.15 1.21
0.02 0.01 0.02 0.03 0.04 0.06 0.05 0.04 0.05 0.06 0.07 0.15 0.42 0.67 0.67 0.69 0.56 0.36 0.31 0.28 0.24 0.25 0.26 0.31 0.27 0.31 0.27 0.26 0.34 0.46 0.64 0.72 0.69 0.73 0.79 0.88 0.98 1.15 1.23 1.23 1.27 1.23 1.20 1.22
0.02 0.01 0.02 0.04 0.06 0.06 0.07 0.07 0.07 0.08 0.08 0.11 0.20 0.34 0.38 0.41 0.44 0.48 0.40 0.34 0.35 0.37 0.30 0.30 0.26 0.30 0.25 0.26 0.31 0.39 0.47 0.56 0.60 0.68 0.77 0.86 0.94 1.06 1.18 1.16 1.21 1.29 1.25 1.23
0.02 0.01 0.03 0.10 0.15 0.14 0.10 0.09 0.08 0.08 0.08 0.08 0.19 0.34 0.34 0.29 0.33 0.38 0.38 0.41 0.43 0.37 0.35 0.29 0.33 0.34 0.27 0.28 0.31 0.37 0.47 0.58 0.66 0.73 0.84 0.87 0.84 0.92 1.06 1.13 1.17 1.23 1.27 1.30
0.02 0.02 0.02 0.08 0.16 0.20 0.19 0.14 0.10 0.07 0.06 0.06 0.11 0.22 0.23 0.33 0.41 0.38 0.40 0.47 0.43 0.30 0.29 0.30 0.31 0.32 0.36 0.36 0.39 0.47 0.58 0.64 0.70 0.66 0.72 0.79 0.84 0.98 1.12 1.16 1.18 1.21 1.22 1.27
0.02 0.02 0.02 0.02 0.06 0.12 0.17 0.16 0.11 0.06 0.05 0.06 0.07 0.13 0.21 0.36 0.46 0.48 0.48 0.49 0.43 0.32 0.31 0.32 0.34 0.34 0.37 0.43 0.47 0.53 0.65 0.65 0.69 0.81 0.89 0.97 1.00 1.07 1.21 1.29 1.25 1.29 1.31 1.32
0.04 0.04 0.03 0.03 0.05 0.08 0.11 0.14 0.10 0.06 0.06 0.05 0.07 0.14 0.26 0.43 0.48 0.51 0.47 0.43 0.40 0.40 0.36 0.40 0.44 0.44 0.43 0.46 0.55 0.63 0.69 0.73 0.87 1.17 1.27 1.28 1.32 1.36 1.38 1.39 1.37 1.43 1.50 1.66
0.11 0.09 0.07 0.05 0.07 0.08 0.13 0.12 0.10 0.09 0.08 0.08 0.12 0.21 0.29 0.41 0.55 0.62 0.54 0.42 0.41 0.39 0.42 0.48 0.59 0.63 0.58 0.58 0.63 0.72 0.76 0.80 0.95 1.17 1.30 1.39 1.42 1.44 1.50 1.51 1.53 1.56 1.63 1.71
0.19 0.19 0.15 0.10 0.10 0.17 0.16 0.14 0.15 0.13 0.13 0.16 0.25 0.36 0.40 0.42 0.48 0.51 0.43 0.42 0.45 0.46 0.53 0.61 0.62 0.69 0.73 0.76 0.79 0.89 1.01 1.12 1.19 1.28 1.39 1.53 1.57 1.61 1.63 1.61 1.54 1.52 1.57 1.58
0.24 0.27 0.24 0.21 0.20 0.18 0.17 0.20 0.22 0.21 0.26 0.29 0.41 0.52 0.58 0.56 0.54 0.63 0.56 0.53 0.53 0.58 0.62 0.71 0.80 0.81 0.87 0.99 1.05 1.07 1.22 1.36 1.43 1.48 1.62 1.74 1.83 1.90 1.81 1.68 1.65 1.61 1.59 1.48
0.29 0.33 0.38 0.33 0.34 0.34 0.27 0.31 0.30 0.32 0.54 0.53 0.58 0.68 0.74 0.75 0.91 0.97 0.74 0.69 0.64 0.63 0.66 0.71 0.86 1.02 1.01 1.11 1.21 1.26 1.28 1.32 1.39 1.44 1.54 1.68 1.79 1.95 2.01 1.92 1.87 1.77 1.71 1.61
0.42 0.45 0.42 0.41 0.43 0.39 0.37 0.35 0.37 0.66 0.90 0.83 0.79 0.79 0.87 0.97 0.92 0.86 0.73 0.73 0.72 0.66 0.67 0.70 0.78 0.94 1.00 1.07 1.16 1.28 1.32 1.26 1.28 1.28 1.29 1.42 1.60 1.79 1.88 1.92 1.85 1.82 1.74 1.63
0.61 0.65 0.59 0.54 0.68 0.77 0.55 0.45 0.65 0.91 0.92 1.00 0.92 0.91 0.95 0.99 1.00 0.94 0.86 0.81 0.75 0.66 0.66 0.70 0.75 0.82 0.94 1.09 1.27 1.41 1.42 1.38 1.36 1.39 1.48 1.54 1.59 1.61 1.59 1.62 1.62 1.67 1.68 1.63
0.79 0.84 0.82 0.82 0.96 0.89 0.65 0.66 0.74 0.76 0.92 0.98 0.94 0.95 0.98 0.96 0.95 0.89 0.80 0.77 0.81 0.74 0.72 0.70 0.77 0.85 0.99 1.17 1.38 1.58 1.60 1.60 1.60 1.61 1.61 1.59 1.58 1.57 1.57 1.54 1.52 1.50 1.44 1.34
0.88 0.75 0.90 1.09 1.22 1.04 0.87 0.78 0.79 0.85 0.93 0.98 0.95 1.01 1.02 0.94 0.87 0.84 0.81 0.78 0.84 0.84 0.78 0.77 0.78 0.83 0.94 1.04 1.17 1.37 1.45 1.49 1.57 1.52 1.44 1.36 1.32 1.33 1.36 1.39 1.40 1.40 1.35 1.29
0.96 0.94 1.06 1.39 1.57 1.43 1.24 1.03 0.93 1.02 1.16 1.22 1.19 1.12 1.04 1.05 1.07 1.11 1.06 0.94 0.86 0.86 0.88 0.85 0.85 0.88 0.91 0.96 1.01 1.10 1.20 1.30 1.44 1.50 1.45 1.41 1.38 1.34 1.35 1.40 1.47 1.39 1.33 1.29
0.86 1.07 1.28 1.59 1.60 1.64 1.53 1.24 1.13 1.20 1.33 1.36 1.27 1.27 1.25 1.22 1.20 1.10 1.04 0.96 0.88 0.84 0.87 0.91 0.94 0.96 0.95 0.98 1.04 1.10 1.20 1.36 1.52 1.52 1.44 1.44 1.46 1.47 1.46 1.43 1.45 1.51 1.37 1.30